Home > Weather > Scheibbs > Past weeks

Flag for Austria Past Weather in Scheibbs, Lower Austria, Austria — Yesterday and Last 2 Weeks

Now
69 °F

Mild.


Feels Like: 69 °F
Forecast: 57 / 80 °F
Wind: 1 mph from West

Location: Amstetten

Current Time: Jun 30, 2016 at 9:32:26 PM

Latest Report: Jun 30, 2016 at 8:00 PM


Visibility: N/A

Pressure: 30.00 "Hg

Humidity: 88%

Dew Point: 65 °F

Location of ScheibbsLocation

Past Weather in Scheibbs — Graph

°F

Scheibbs Temperature Yesterday

Maximum temperature yesterday: 83 °F (at 5:00 PM)
Minimum temperature yesterday: 56 °F (at 3:00 AM)
Average temperature yesterday: 70 °F

High & Low Weather Summary for the Past Weeks

 TemperatureHumidityPressure
High93 °F (Jun 25, 4:00 PM)100% (Jun 20, 11:00 PM)30.29 "Hg (Jun 20, 11:00 PM)
Low52 °F (Jun 21, 6:00 AM)36% (Jun 25, 4:00 PM)29.47 "Hg (Jun 16, 7:00 PM)
Average68 °F75%30.01 "Hg
* Reported Jun 15 8:00 PM — Jun 30 8:00 PM, Scheibbs, Weather by CustomWeather, © 2016

Note: Actual official high and low records may vary slightly from our data, if they occured in-between our weather recording intervals... More about our weather records

Advertising

Scheibbs Weather History for the Previous 24 Hours

Scroll right to see more
 ConditionsComfort  
Time TempWeatherWind HumidityBarometerVisibility
8:00 PM
Thu, Jun 30
69 °FMild.1 mph88%30.00 "HgN/A
7:00 PM70 °FMild.3 mph79%29.99 "HgN/A
6:00 PM75 °FMild.2 mph61%29.97 "HgN/A
5:00 PM77 °FMild.3 mph57%29.96 "HgN/A
4:00 PM80 °FWarm.5 mph54%29.96 "HgN/A
3:00 PM78 °FWarm.5 mph57%29.96 "HgN/A
2:00 PM78 °FWarm.3 mph60%29.96 "HgN/A
1:00 PM79 °FWarm.3 mph58%29.96 "HgN/A
12:00 PM79 °FWarm.3 mph60%29.96 "HgN/A
11:00 AM76 °FMild.3 mph64%29.96 "HgN/A
10:00 AM75 °FMild.1 mph63%29.93 "HgN/A
9:00 AM72 °FMild.1 mph72%29.93 "HgN/A
8:00 AM69 °FPassing clouds.2 mph79%29.93 "HgN/A
7:00 AM68 °FMild.1 mph80%29.94 "HgN/A
6:00 AM63 °FMild.1 mph93%29.96 "HgN/A
5:00 AM63 °FMild.1 mph93%29.94 "HgN/A
4:00 AM65 °FMild.1 mph88%29.94 "HgN/A
3:00 AM65 °FMild.No wind89%29.94 "HgN/A
2:00 AM65 °FMild.1 mph89%29.94 "HgN/A
1:00 AM65 °FMild.2 mph89%29.95 "HgN/A
12:00 AM65 °FMild.1 mph89%29.93 "HgN/A
11:00 PM
Wed, Jun 29
67 °FMild.No wind86%29.93 "HgN/A
10:00 PM71 °FMild.No wind80%29.92 "HgN/A
9:00 PM74 °FMild.No wind83%29.90 "HgN/A
Weather by CustomWeather, © 2016

See weather overviewHow to use our weather pages